Location: Newark
(36.2350°N, 59.6408°E)
Time: 00:46:30
(UTC+00:00)

N. Korean satellite - Visible Passes

Search period start: 18 November 2019 00:00
Search period end: 28 November 2019 00:00
Orbit: 456 x 506 km, 97.2° (Epoch: 17 November)

Date Brightness Start Highest point End Pass type
(mag) Time Alt. Az. Time Alt. Az. Time Alt. Az.
18 Nov 6.6 01:54:28 10° N 01:58:11 86° WNW 02:01:50 10° SSW visible
18 Nov 9.7 14:01:24 10° SW 14:03:58 18° W 14:06:35 10° NW visible
19 Nov 8.1 01:29:17 10° NNE 01:32:48 40° E 01:36:13 10° S visible
19 Nov 8.2 13:35:04 10° SSW 13:38:28 39° W 13:41:56 10° NNW visible
20 Nov 9.6 01:04:39 10° NE 01:07:17 19° E 01:09:54 10° SE visible
21 Nov 6.8 02:11:48 10° N 02:15:21 47° WNW 02:18:51 10° SSW visible
21 Nov 10.3 14:20:17 10° WSW 14:21:18 11° W 14:22:20 10° WNW visible
22 Nov 6.9 01:46:20 10° NNE 01:50:01 73° E 01:53:37 10° S visible
22 Nov 9.3 13:52:47 10° SSW 13:55:44 23° W 13:58:44 10° NW visible
23 Nov 8.6 01:21:17 10° NNE 01:24:34 31° E 01:27:48 10° SSE visible
23 Nov 7.6 13:26:43 10° S 13:30:16 52° W 13:33:53 10° NNW visible
24 Nov 9.9 00:56:56 10° ENE 00:59:02 15° E 01:01:06 10° SE visible
25 Nov 6.6 02:03:32 10° N 02:07:10 62° WNW 02:10:42 10° SSW visible
25 Nov 10.0 14:11:00 10° SW 14:13:01 14° W 14:15:03 10° WNW visible
26 Nov 7.4 01:38:11 10° NNE 01:41:47 55° E 01:45:17 10° S visible
26 Nov 8.9 13:44:14 10° SSW 13:47:29 29° W 13:50:46 10° NW visible
27 Nov 9.1 01:13:18 10° NE 01:16:18 24° E 01:19:15 10° SSE visible
27 Nov 7.1 13:18:23 10° S 13:22:02 68° W 13:25:44 10° NNW visible
